National Weather Service Hourly Weather Roundup
NOAA NWS Hourly Roundups by Site
Regional Weather Roundup for Sacramento, CA

To Select Another Site Choose from List

Select Site:  

000
ASUS46 KSTO 171415
RWRCA

NORTHERN AND CENTRAL CA REGIONAL WEATHER ROUNDUP
NATIONAL WEATHER SERVICE SACRAMENTO CA
700 AM PDT WED APR 17 2024

NOTE: FAIR INDICATES FEW OR NO CLOUDS BELOW 12,000 FEET WITH NO
SIGNIFICANT WEATHER AND/OR OBSTRUCTIONS TO VISIBILITY.

CAZ001-003-171500-
NORTHWEST AREA

CITY           SKY/WX    TMP DP  RH WIND       PRES   REMARKS
CRESCENT CITY  CLEAR     42  38  85 N5        30.21S
UKIAH          PTCLDY    47  43  86 CALM      30.08S
$$

CAZ006-505>513-171500-
BAY AREA

CITY           SKY/WX    TMP DP  RH WIND       PRES   REMARKS
SANTA ROSA     PTCLDY    46  45  96 S5        30.05R
SAN RAFAEL     N/A       50  MM  MM MISG
NAPA           PTCLDY    47  46  97 CALM      30.05R
CONCORD        PTCLDY    52  48  86 CALM      30.05R
OAKLAND CITY   N/A       MM  MM  MM MISG
OAKLAND        MOCLDY    53  52  96 CALM      30.05R
SAN FRAN CITY  N/A       52  MM  89 MISG
SAN FRAN ARPT  MOCLDY    53  49  86 W3        30.04S
LIVERMORE      PTCLDY    51  47  86 CALM      30.04S
HAYWARD        PTCLDY    54  48  80 CALM      30.04R
REDWOOD CITY   N/A       50  MM  89 MISG
MOFFETT ARPT   MOCLDY    54  50  87 CALM      30.04S
SAN JOSE ARPT  MOCLDY    56  48  74 CALM      30.04R
$$
CAZ034-037-514>518-171500-
CENTRAL COAST

CITY           SKY/WX    TMP DP  RH WIND       PRES   REMARKS
WATSONVILLE    MOCLDY    50  48  93 N3        30.04F
SALINAS        MOCLDY    51  49  92 SE6       30.03S
MONTEREY       MOCLDY    49  47  93 E3        30.04S
SAN LUIS OBISP PTCLDY    51  46  83 E3        30.00R
SANTA MARIA    PTCLDY    47  47 100 SE5       30.00R
HALF MOON BAY  MOCLDY    48  48 100 CALM      30.05S FOG
$$
CAZ015-016-171500-
NORTHERN SACRAMENTO VALLEY

CITY           SKY/WX    TMP DP  RH WIND       PRES   REMARKS
REDDING        CLEAR     59  37  44 NW8       30.07R
RED BLUFF      CLEAR     53  42  66 NW7       30.07S
OROVILLE       PTCLDY    54  50  86 W5        30.05R
$$
CAZ016>018-171500-
SOUTHERN SACRAMENTO VALLEY

CITY           SKY/WX    TMP DP  RH WIND       PRES   REMARKS
AUBURN         CLEAR     52  43  71 E3        30.07R
BEALE AFB      PTCLDY    51  50  94 CALM      30.04R
LINCOLN        PTCLDY    48  48 100 N3        30.04R
MARYSVILLE     PTCLDY    55  50  83 N3        30.05S
SAC INTL ARPT  MOCLDY    54  50  86 N5        30.05R
MATHER AIRPORT CLEAR     54  50  87 CALM      30.03R
DOWNTOWN SAC   N/A       55  MM  MM MISG
SAC EXEC ARPT  PTCLDY    52  50  93 NW3       30.05R
VACAVILLE      PTCLDY    55  52  89 CALM      30.06R
TRAVIS AFB     PTCLDY    49  47  92 CALM      30.03R
$$
CAZ019>021-171500-
SAN JOAQUIN VALLEY

CITY           SKY/WX    TMP DP  RH WIND       PRES   REMARKS
STOCKTON       PTCLDY    51  49  92 CALM      30.04R
MODESTO        PTCLDY    50  50 100 E3        30.03S FOG
MERCED         PTCLDY    52  50  93 E3        30.03S
FRESNO         MOCLDY    57  52  83 E3        30.05S
HANFORD        MOCLDY    53  50  89 E5        30.06R FOG
PORTERVILLE    MOCLDY    52  50  93 E5        30.07S
BAKERSFIELD    PTCLDY    53  49  86 CALM      30.05R
$$
CAZ011-012-071-171500-
NORTHERN MOUNTAINS

CITY           SKY/WX    TMP DP  RH WIND       PRES   REMARKS
YREKA          PTCLDY    35  29  78 NE5       30.23R WCI  31
MOUNT SHASTA   PTCLDY    36  27  69 CALM      30.18R
ALTURAS        PTCLDY    33  24  69 N7        30.21R WCI  27
$$
CAZ011-012-071-171500-
SIERRA NEVADA MTNS

CITY           SKY/WX    TMP DP  RH WIND       PRES   REMARKS
BLUE CANYON    PTCLDY    49  31  49 CALM      30.16R
TRUCKEE        MOCLDY    27  27 100 CALM      30.18R
TAHOE VLY ARPT PTCLDY    29  25  85 CALM      30.16S
MAMMOTH LAKES  PTCLDY    30  22  73 CALM      30.20S
$$


 

View Past Reports for Sacramento, CA.

Products Courtesy of NOAA-NWS
NWS Information Parsing Script by Ken True at Saratoga Weather - Script by SE Lincoln Weather.

powered by Cumulus v1.9.3 (1059)
Ambient Weather VWS v14.00
Weather-Display (10.37S-(b58))
Virtual VP software
Top Website Map Copyright © 2007 - 2024 Foresthillweather.com Never base important decisions on this or any weather information obtained from the Internet